This is the latest recevied weather packets stored in our database for station/object DL9GRB-13. If no packets are shown the sender has not sent any weather packets the latest 10 day(s).
| Time | Temp. | Humidity | Pressure | Rain* | Wind** | Luminosity | Snow |
|---|---|---|---|---|---|---|---|
| 1777794547 | 20.56° C | 62% | 1010.8 hPa | 0 mm | - | 489 W/m² | - |
| 1777794367 | 20° C | 65% | 1011 hPa | 0 mm | - | 481 W/m² | - |
| 1777794187 | 20° C | 64% | 1010.9 hPa | 0 mm | - | 445 W/m² | - |
| 1777794007 | 20° C | 64% | 1011 hPa | 0 mm | - | 410 W/m² | - |
| 1777793827 | 19.44° C | 66% | 1011.2 hPa | 0 mm | - | 425 W/m² | - |
| 1777793647 | 19.44° C | 65% | 1011 hPa | 0 mm | - | 397 W/m² | - |
| 1777793467 | 18.89° C | 66% | 1011.1 hPa | 0 mm | - | 400 W/m² | - |
| 1777793287 | 18.33° C | 69% | 1011.2 hPa | 0 mm | - | 387 W/m² | - |
| 1777793107 | 18.33° C | 70% | 1011 hPa | 0 mm | - | 380 W/m² | - |
| 1777792927 | 18.33° C | 70% | 1011.1 hPa | 0 mm | - | 211 W/m² | - |
| 1777792747 | 18.33° C | 70% | 1011 hPa | 0 mm | - | 195 W/m² | - |
| 1777792567 | 18.33° C | 70% | 1011 hPa | 0 mm | - | 179 W/m² | - |
| 1777792387 | 17.78° C | 69% | 1011.1 hPa | 0 mm | - | 158 W/m² | - |
| 1777792207 | 17.78° C | 70% | 1011.1 hPa | 0 mm | - | 137 W/m² | - |
| 1777792027 | 17.78° C | 69% | 1010.9 hPa | 0 mm | - | 122 W/m² | - |
| 1777791847 | 17.78° C | 69% | 1011 hPa | 0 mm | - | 116 W/m² | - |
| 1777791667 | 17.78° C | 68% | 1011.1 hPa | 0 mm | - | 105 W/m² | - |
| 1777791487 | 17.78° C | 68% | 1010.9 hPa | 0 mm | - | 93 W/m² | - |
| 1777791307 | 17.78° C | 69% | 1011 hPa | 0 mm | - | 87 W/m² | - |
| 1777791127 | 17.78° C | 68% | 1011 hPa | 0 mm | - | 77 W/m² | - |
| 1777790947 | 17.78° C | 69% | 1010.9 hPa | 0 mm | - | 76 W/m² | - |
| 1777790767 | 17.78° C | 68% | 1011 hPa | 0 mm | - | 85 W/m² | - |
| 1777790587 | 17.78° C | 67% | 1011.2 hPa | 0 mm | - | 99 W/m² | - |
| 1777790407 | 17.78° C | 67% | 1010.9 hPa | 0 mm | - | 104 W/m² | - |
| 1777790227 | 18.33° C | 68% | 1011 hPa | 0 mm | - | 98 W/m² | - |
* Rain latest hour (hover to see other rain measurements)
** Current wind speed in m/s (hover to see current wind gust speed)